Weather History for KPLN - November, 2012

Change the Weather History Date:

Monday, November 12, 2012

  Actual Average Record
Temperature  
Mean Temperature 40 °F -  
Max Temperature 53 °F 39 °F 63 °F (2005)
Min Temperature 26 °F 26 °F 5 °F (1950)
Degree Days  
Heating Degree Days 26    
Moisture  
Dew Point 31 °F    
Average Humidity 82    
Maximum Humidity 93    
Minimum Humidity 61    
Precipitation  
Precipitation 0.12 in - - ()
Sea Level Pressure  
Sea Level Pressure 29.91 in    
Wind  
Wind Speed 12 mph (WSW)    
Max Wind Speed 20 mph    
Max Gust Speed 31 mph    
Visibility 6 miles    
Events Fog , Rain , Snow    
Averages and records for this station are not official NWS values.
T = Trace of Precipitation, MM = Missing Value Source: NWS Daily Summary

Daily Weather History Graph

Daily Weather History Graph

Search for Another Location

Airport or City:

Trip Planner

Search our weather history database for the weather conditions in past years. The results will help you decide how hot, cold, wet, or windy it might be!

Date:

Astronomy

Nov. 12, 2012 Rise Set
Actual Time 7:34 AM EST 5:11 PM EST
Civil Twilight 7:03 AM EST 5:43 PM EST
Nautical Twilight 6:27 AM EST 6:19 PM EST
Astronomical Twilight 5:52 AM EST 6:53 PM EST
Moon 5:56 AM EST (11/12) 4:17 PM EST (11/12)
Length of Visible Light 10h 40m
Length of Day
9h 36m
Waning Crescent, 2% of the Moon is Illuminated
Nov 12
Waning Crescent
Nov 13
New
Nov 20
First Quarter
Nov 28
Full
Dec 6
Last Quarter

Hourly Weather History & Observations

Time (EST) Temp. Windchill Dew Point Humidity Pressure Visibility Wind Dir Wind Speed Gust Speed Precip Events Conditions
12:43 AM 53.6 °F - 50.0 °F 88% 29.76 in 7.0 mi SSW 10.4 mph 17.3 mph 0.03 in Rain Rain
1:54 AM 53.1 °F - 50.0 °F 89% 29.75 in 10.0 mi South 9.2 mph - 0.00 in Rain Light Rain
2:54 AM 53.1 °F - 48.9 °F 86% 29.74 in 10.0 mi SSW 9.2 mph - 0.01 in Rain Light Rain
3:05 AM 53.6 °F - 48.2 °F 82% 29.73 in 10.0 mi SSW 9.2 mph - 0.00 in Rain Light Rain
3:54 AM 51.1 °F - 48.0 °F 89% 29.75 in 4.0 mi WSW 19.6 mph 26.5 mph 0.01 in Rain Light Rain
4:03 AM 48.2 °F - 44.6 °F 87% 29.75 in 4.0 mi West 12.7 mph 26.5 mph 0.01 in Rain Light Rain
4:10 AM 46.4 °F 40.7 °F 44.6 °F 93% 29.76 in 4.0 mi WSW 12.7 mph 25.3 mph 0.01 in Rain Light Rain
4:54 AM 45.0 °F 37.6 °F 42.1 °F 90% 29.77 in 9.0 mi WSW 17.3 mph 31.1 mph 0.01 in Rain Light Rain
5:00 AM 44.6 °F 37.8 °F 41.0 °F 87% 29.77 in 9.0 mi WSW 15.0 mph 29.9 mph 0.00 in Rain Light Rain
5:18 AM 44.6 °F 37.4 °F 41.0 °F 87% 29.79 in 5.0 mi WSW 16.1 mph 25.3 mph 0.00 in Rain Light Rain
5:47 AM 44.6 °F 39.7 °F 42.8 °F 93% 29.77 in 8.0 mi SW 9.2 mph 19.6 mph 0.00 in Rain Light Rain
5:54 AM 44.1 °F 39.5 °F 42.1 °F 93% 29.78 in 10.0 mi SW 8.1 mph 18.4 mph 0.00 in Rain Light Rain
6:23 AM 42.8 °F 36.2 °F 39.2 °F 87% 29.81 in 10.0 mi SW 12.7 mph 24.2 mph 0.01 in Rain Light Rain
6:54 AM 42.1 °F 34.9 °F 39.0 °F 89% 29.81 in 10.0 mi WSW 13.8 mph 19.6 mph 0.01 in Rain Light Rain
7:03 AM 42.8 °F 36.6 °F 37.4 °F 81% 29.81 in 10.0 mi WSW 11.5 mph 23.0 mph 0.00 in   Overcast
7:54 AM 41.0 °F 33.1 °F 36.0 °F 82% 29.85 in 10.0 mi WSW 15.0 mph 20.7 mph 0.00 in Rain Light Rain
8:35 AM 39.2 °F 33.0 °F 35.6 °F 87% 29.83 in 10.0 mi West 9.2 mph 17.3 mph 0.00 in   Overcast
8:54 AM 39.0 °F 32.3 °F 35.1 °F 86% 29.86 in 10.0 mi WSW 10.4 mph - 0.00 in   Overcast
9:54 AM 37.9 °F 28.9 °F 30.9 °F 76% 29.86 in 10.0 mi WSW 16.1 mph 21.9 mph N/A   Overcast
10:54 AM 36.0 °F 29.0 °F 30.0 °F 79% 29.88 in 10.0 mi West 9.2 mph 19.6 mph N/A   Overcast
11:54 AM 36.0 °F 27.1 °F 28.0 °F 73% 29.89 in 10.0 mi SW 13.8 mph 20.7 mph N/A   Overcast
12:54 PM 35.1 °F 25.2 °F 27.0 °F 72% 29.88 in 10.0 mi SW 16.1 mph 23.0 mph N/A   Overcast
1:54 PM 35.1 °F 27.9 °F 25.0 °F 67% 29.88 in 10.0 mi WSW 9.2 mph 23.0 mph N/A   Overcast
2:54 PM 33.1 °F 22.6 °F 24.1 °F 70% 29.91 in 10.0 mi SW 16.1 mph 23.0 mph N/A   Overcast
3:54 PM 33.1 °F 22.6 °F 21.9 °F 64% 29.92 in 10.0 mi SW 16.1 mph 25.3 mph 0.00 in   Overcast
4:54 PM 32.0 °F 20.5 °F 21.9 °F 66% 29.95 in 10.0 mi WSW 18.4 mph 27.6 mph 0.00 in   Overcast
5:54 PM 30.0 °F 20.0 °F 24.1 °F 79% 29.97 in 2.0 mi WSW 12.7 mph 19.6 mph 0.01 in Snow Light Snow
6:04 PM 30.2 °F 18.1 °F 24.8 °F 80% 29.95 in 1.5 mi WSW 18.4 mph 27.6 mph 0.00 in Snow Light Snow
6:20 PM 30.2 °F 21.3 °F 24.8 °F 80% 29.96 in 3.0 mi West 10.4 mph 23.0 mph 0.00 in Snow Light Snow
6:31 PM 28.4 °F 16.6 °F 24.8 °F 86% 29.97 in 0.8 mi West 16.1 mph 25.3 mph 0.01 in Snow Light Snow
6:52 PM 28.4 °F 17.0 °F 24.8 °F 86% 29.97 in 0.5 mi West 15.0 mph 25.3 mph 0.02 in Fog , Snow Snow
6:54 PM 28.9 °F 18.6 °F 25.0 °F 85% 30.00 in 0.5 mi WSW 12.7 mph 25.3 mph 0.02 in Fog , Snow Snow
7:00 PM 28.4 °F 18.0 °F 24.8 °F 86% 29.98 in 1.0 mi WSW 12.7 mph 23.0 mph 0.00 in Snow Light Snow
7:20 PM 28.4 °F 19.7 °F 24.8 °F 86% 29.98 in 2.0 mi West 9.2 mph 19.6 mph 0.01 in Snow Light Snow
8:54 PM 28.9 °F 16.9 °F 19.0 °F 67% 30.04 in 9.0 mi West 17.3 mph 24.2 mph 0.00 in   Overcast
9:02 PM 28.4 °F 18.0 °F 19.4 °F 69% 30.02 in 2.0 mi West 12.7 mph 26.5 mph 0.00 in Snow Light Snow
9:10 PM 28.4 °F 19.7 °F 21.2 °F 74% 30.02 in 1.5 mi West 9.2 mph 19.6 mph 0.01 in Snow Light Snow
9:19 PM 26.6 °F 15.2 °F 21.2 °F 80% 30.03 in 0.8 mi West 13.8 mph 19.6 mph 0.01 in Snow Light Snow
9:33 PM 26.6 °F 16.8 °F 23.0 °F 86% 30.03 in 0.5 mi West 10.4 mph 20.7 mph 0.02 in Fog , Snow Snow
9:54 PM 27.0 °F 18.7 °F 24.1 °F 89% 30.07 in 0.5 mi West 8.1 mph - 0.04 in Fog , Snow Snow
10:19 PM 26.6 °F 17.5 °F 24.8 °F 93% 30.05 in 1.2 mi West 9.2 mph - 0.01 in Snow Light Snow
10:23 PM 26.6 °F 16.8 °F 24.8 °F 93% 30.05 in 1.5 mi West 10.4 mph - 0.01 in Snow Light Snow
10:27 PM 26.6 °F 18.2 °F 24.8 °F 93% 30.05 in 3.0 mi West 8.1 mph - 0.01 in Snow Light Snow
10:44 PM 28.4 °F 18.0 °F 23.0 °F 80% 30.05 in 7.0 mi West 12.7 mph 20.7 mph 0.01 in Snow Light Snow
10:54 PM 28.0 °F 18.1 °F 21.9 °F 78% 30.09 in 9.0 mi West 11.5 mph 21.9 mph 0.01 in   Overcast
11:54 PM 28.9 °F 20.4 °F 17.1 °F 61% 30.12 in 10.0 mi WNW 9.2 mph - N/A   Overcast